DateTimeUTC,F1_A11,F1_S11,BsB_S11,BsG_S11,BsR_S11,BbsB_S11,BbsG_S11,BbsR_S11,BaB_A11,BaG_A11,BaR_A11,Tu_S11,T_S11,Uu_S11,U_S11,P_S11,T1_A11
2021-05-26T23:00:00Z,00000200,20000000,,,,,,,0000.07,0000.19,-000.01,18.7,25.4,11.1,07.4,0678.8,31.0
2021-05-26T23:01:00Z,00000200,20000000,,,,,,,0000.46,0000.54,0000.60,18.7,25.4,11.1,07.4,0678.8,31.0
2021-05-26T23:02:00Z,00000200,20000000,,,,,,,-000.42,-000.17,-000.26,18.7,25.4,11.1,07.4,0678.8,31.0
2021-05-26T23:03:00Z,00000200,60000000,,,,,,,0000.32,0000.17,0000.19,18.7,25.4,11.1,07.4,0678.8,31.0
2021-05-26T23:04:00Z,00000200,40000000,0000.61,0000.22,0000.20,0000.05,0000.01,-000.09,0000.23,-000.06,-000.06,18.8,25.2,11.3,07.7,0679.7,31.0
2021-05-26T23:05:00Z,00000200,00000000,0000.62,0000.27,0000.27,0000.23,-000.05,0000.15,-000.17,-000.17,0000.38,18.8,25.2,11.3,07.7,0679.8,31.0
2021-05-26T23:06:00Z,00000200,00000000,0000.10,0000.00,0000.13,0000.51,0000.12,-000.15,0000.01,0000.20,0000.12,18.8,25.1,11.3,07.7,0679.8,31.0
2021-05-26T23:07:00Z,00000200,00000000,0000.32,-000.07,0000.41,0000.09,0000.05,0000.06,-000.62,-000.51,-000.55,18.8,25.1,11.2,07.6,0679.8,31.0
2021-05-26T23:08:00Z,00000200,00000000,0000.48,0000.33,0000.17,0000.31,-000.12,0000.04,0000.50,0000.79,0000.23,18.8,25.1,11.1,07.6,0679.8,31.0
2021-05-26T23:09:00Z,00000200,00000000,0000.57,0000.34,0000.17,0000.05,0000.17,-000.30,0000.05,-000.02,-000.02,18.8,25.1,11.3,07.7,0679.8,31.0
2021-05-26T23:10:00Z,00000200,00000000,0000.64,0000.09,0000.27,0000.24,-000.09,-000.05,0000.12,0000.04,0000.21,18.8,25.1,11.2,07.7,0679.8,31.0
2021-05-26T23:11:00Z,00000200,00000000,0000.25,0000.08,0000.31,0000.37,-000.07,0000.05,0000.04,-000.18,0000.07,18.8,25.1,11.2,07.6,0679.8,31.0
2021-05-26T23:12:00Z,00000200,00000000,0000.22,0000.01,-000.29,0000.27,0000.11,0000.05,0000.09,0000.34,0000.18,18.8,25.1,11.0,07.5,0679.8,31.0
2021-05-26T23:13:00Z,00000200,00000000,-000.21,0000.25,-000.00,-000.13,0000.01,-000.13,-000.19,-000.34,-000.18,18.8,25.1,11.0,07.5,0679.8,31.0
2021-05-26T23:14:00Z,00000200,00000000,0000.85,0000.51,-000.14,0000.21,0000.06,0000.10,-000.52,-000.12,-000.12,18.8,25.1,11.0,07.5,0679.8,31.0
2021-05-26T23:15:00Z,00000200,00000000,0000.13,0000.33,0000.29,0000.17,-000.08,0000.39,0000.72,0000.51,0000.58,18.8,25.1,10.9,07.5,0679.8,31.0
2021-05-26T23:16:00Z,00000200,00000000,0000.08,0000.37,0000.07,0000.22,0000.02,0000.30,-000.24,-000.34,-000.60,18.8,25.1,11.0,07.5,0679.8,31.0
2021-05-26T23:17:00Z,00000200,00000000,0000.69,0000.40,0000.18,-000.10,-000.23,-000.11,-000.28,-000.09,-000.12,18.8,25.1,10.8,07.4,0679.8,31.0
2021-05-26T23:18:00Z,00000200,00000000,0000.21,-000.01,-000.12,0000.21,-000.04,0000.01,-000.29,-000.35,-000.44,18.8,25.1,10.7,07.3,0679.8,31.0
2021-05-26T23:19:00Z,00000200,00000000,-000.31,0000.48,0000.10,0000.44,-000.16,0000.04,0000.29,0000.06,0000.06,18.8,25.1,10.6,07.2,0679.8,31.0
2021-05-26T23:20:00Z,00000200,00000000,0000.65,0000.30,0000.19,0000.40,-000.00,0000.18,0000.29,0000.57,0000.73,18.8,25.1,10.9,07.4,0679.8,31.0
2021-05-26T23:21:00Z,00000200,00000000,0000.37,0000.17,-000.11,-000.06,-000.16,0000.03,0000.05,-000.19,-000.35,18.8,25.1,11.0,07.5,0679.8,31.0
2021-05-26T23:22:00Z,00000200,00000000,0000.24,0000.22,0000.12,0000.56,0000.00,0000.05,0001.16,0000.75,0000.97,18.8,25.0,11.1,07.5,0679.8,31.0
2021-05-26T23:23:00Z,00000200,00000000,0000.93,0000.10,0000.07,0000.41,-000.09,0000.03,-000.37,0000.02,0000.26,18.8,25.0,11.3,07.7,0679.8,31.0
2021-05-26T23:24:00Z,00000200,00000000,-000.06,0000.12,-000.25,-000.19,0000.06,0000.07,-000.30,-000.26,-000.30,18.8,25.0,11.2,07.6,0679.9,31.0
2021-05-26T23:25:00Z,00000200,00000000,0000.07,0000.15,-000.16,-000.14,0000.20,0000.10,0000.32,0000.05,-000.24,18.8,25.0,11.0,07.5,0679.9,31.0
2021-05-26T23:26:00Z,00000200,00000000,0000.42,-000.13,0000.14,0000.08,0000.10,0000.02,-000.39,0000.10,-000.10,18.8,25.0,10.9,07.4,0679.9,31.0
2021-05-26T23:27:00Z,00000200,00000000,0000.27,0000.26,-000.13,0000.28,0000.05,-000.05,-000.08,-000.26,-000.08,18.8,25.0,10.9,07.4,0679.9,31.0
2021-05-26T23:28:00Z,00000200,00000000,-000.19,0000.09,0000.19,-000.01,0000.05,-000.05,-000.29,-000.19,-000.65,18.8,25.0,10.8,07.4,0679.9,31.0
2021-05-26T23:29:00Z,00000200,00000000,0000.05,0000.24,-000.08,-000.38,-000.01,-000.05,-000.15,-000.17,0000.24,18.8,25.0,10.7,07.3,0679.9,31.0
2021-05-26T23:30:00Z,00000200,00000000,0000.46,0000.38,0000.04,-000.25,0000.14,0000.43,0000.60,0000.39,0000.64,18.8,25.0,10.6,07.3,0679.9,31.0
2021-05-26T23:31:00Z,00000200,00000000,0000.50,0000.44,0000.11,0000.09,0000.16,0000.21,-000.12,-000.06,0000.09,18.8,25.0,10.8,07.4,0679.9,31.0
2021-05-26T23:32:00Z,00000200,00000000,0000.32,0000.25,0000.41,-000.31,-000.35,0000.16,0000.14,0000.42,0000.05,18.8,25.0,10.9,07.4,0679.9,31.0
2021-05-26T23:33:00Z,00000200,00000000,0000.33,0000.24,0000.15,0000.36,-000.13,0000.03,0000.18,0000.10,0000.08,18.8,25.0,10.9,07.4,0679.9,31.0
2021-05-26T23:34:00Z,00000200,00000000,-000.40,0000.15,0000.09,-000.10,-000.06,-000.07,-000.32,-000.21,-000.00,18.8,25.0,10.9,07.5,0680.0,31.0
2021-05-26T23:35:00Z,00000200,00000000,0000.28,0000.35,-000.16,0000.33,-000.07,-000.13,0000.18,-000.46,0000.24,18.7,25.0,10.9,07.5,0680.0,31.0
2021-05-26T23:36:00Z,00000200,00000000,0000.72,0000.07,0000.11,0000.30,-000.07,0000.08,0000.63,0000.84,0000.04,18.7,25.0,10.9,07.5,0680.0,31.0
2021-05-26T23:37:00Z,00000200,00000000,-000.00,0000.50,0000.12,-000.07,-000.04,0000.22,-000.36,-000.12,-000.03,18.7,25.0,11.0,07.5,0680.0,31.0
2021-05-26T23:38:00Z,00000200,00000000,-000.05,-000.03,-000.04,0000.06,-000.24,0000.22,0000.31,0000.11,0000.11,18.7,25.0,11.0,07.5,0680.0,31.0
2021-05-26T23:39:00Z,00000200,00000000,-000.14,0000.23,-000.01,-000.10,0000.02,0000.18,-000.16,0000.06,0000.16,18.7,25.0,11.0,07.5,0680.0,31.0
2021-05-26T23:40:00Z,00000200,00000000,0000.39,0000.09,-000.15,0000.33,0000.02,0000.09,-000.15,-000.51,-000.10,18.7,25.0,10.9,07.5,0680.0,31.0
2021-05-26T23:41:00Z,00000200,00000000,0000.69,0000.51,0000.22,0000.42,0000.27,0000.44,0000.57,0000.52,-000.08,18.7,24.9,11.0,07.5,0680.0,31.0
2021-05-26T23:42:00Z,00000200,00000000,0001.41,0000.21,0000.21,0000.02,0000.20,0000.20,-000.85,-000.39,-000.45,18.7,25.0,10.9,07.5,0680.0,31.0
2021-05-26T23:43:00Z,00000200,00000000,0000.11,0000.35,-000.14,0000.05,0000.30,-000.01,0000.11,-000.10,0000.00,18.7,25.0,10.6,07.3,0680.0,31.0
2021-05-26T23:44:00Z,00000200,00000000,-000.23,0000.26,0000.10,0000.27,-000.07,0000.16,0000.23,0000.13,0000.38,18.7,25.0,10.6,07.3,0680.1,31.0
2021-05-26T23:45:00Z,00000200,00000000,0000.07,0000.21,-000.02,0000.35,-000.05,-000.15,-000.24,-000.18,-000.39,18.7,25.0,10.8,07.4,0680.1,31.0
2021-05-26T23:46:00Z,00000200,00000000,0000.48,0000.17,0000.13,0000.39,-000.03,0000.14,0000.41,0000.29,0000.28,18.7,25.0,10.6,07.3,0680.1,31.0
2021-05-26T23:47:00Z,00000200,00000000,0000.29,0000.35,0000.37,-000.42,0000.15,0000.27,-000.17,-000.21,0000.03,18.7,24.9,10.7,07.3,0680.1,31.0
2021-05-26T23:48:00Z,00000200,00000000,0000.14,0000.24,0000.08,-000.29,0000.16,0000.32,-000.31,0000.09,-000.01,18.7,24.9,10.6,07.2,0680.1,31.0
2021-05-26T23:49:00Z,00000200,00000000,0000.29,0000.50,0000.11,-000.34,-000.09,0000.37,0000.40,0000.14,0000.07,18.7,24.9,10.6,07.2,0680.1,31.0
2021-05-26T23:50:00Z,00000200,00000000,-000.18,0000.29,-000.26,-000.22,0000.14,0000.16,-000.41,-000.33,-000.21,18.7,24.9,10.6,07.2,0680.1,31.0
2021-05-26T23:51:00Z,00000200,00000000,0000.38,0000.10,0000.06,0000.19,0000.04,0000.00,0000.12,0000.46,0000.05,18.7,24.9,10.6,07.3,0680.1,31.0
2021-05-26T23:52:00Z,00000200,00000000,0000.13,0000.18,0000.21,0000.38,-000.07,0000.13,0000.61,0000.09,0000.40,18.7,24.9,10.6,07.3,0680.1,31.0
2021-05-26T23:53:00Z,00000200,00000000,0000.19,0000.26,-000.06,0000.31,-000.07,0000.23,-000.17,0000.27,0000.04,18.7,24.9,10.8,07.4,0680.1,31.0
2021-05-26T23:54:00Z,00000200,00000000,0000.49,0000.30,0000.20,0000.32,-000.10,0000.16,-000.01,-000.04,0000.01,18.7,24.9,10.7,07.3,0680.1,31.0
2021-05-26T23:55:00Z,00000200,00000000,0000.60,0000.25,-000.18,-000.15,-000.06,-000.09,-000.06,-000.69,-000.17,18.7,24.9,10.7,07.3,0680.0,31.0
2021-05-26T23:56:00Z,00000200,00000000,-000.05,0000.54,-000.07,-000.15,0000.08,0000.01,0000.06,0000.68,0000.07,18.7,24.9,10.7,07.3,0680.0,31.0
2021-05-26T23:57:00Z,00000200,40000000,,,,,,,0000.36,0000.15,0000.50,18.7,24.9,11.1,07.6,0680.1,31.0
2021-05-26T23:58:00Z,00000200,60000000,,,,,,,-000.21,-000.51,-000.51,18.5,25.0,10.8,07.2,0679.1,31.0
2021-05-26T23:59:00Z,00000200,20000000,,,,,,,-000.03,0000.25,0000.40,18.5,25.0,10.7,07.1,0679.0,31.0
